Weather reports worldwide

Advertisment
Bournemouth Airport, United Kingdom (3862): temperature & dewpoint: 19.09.2018 22:00:00 - 25.09.2018 22:00:00 (BST)Bournemouth Airport, United Kingdom (3862): temperature -20cm & temperature -100cm: 19.09.2018 22:00:00 - 25.09.2018 22:00:00 (BST)Bournemouth Airport, United Kingdom (3862): wind speed & gusts: 19.09.2018 22:00:00 - 25.09.2018 22:00:00 (BST)Bournemouth Airport, United Kingdom (3862): wind direction: 19.09.2018 22:00:00 - 25.09.2018 22:00:00 (BST)Bournemouth Airport, United Kingdom (3862): reduced air pressure: 19.09.2018 22:00:00 - 25.09.2018 22:00:00 (BST)Bournemouth Airport, United Kingdom (3862): visibility: 19.09.2018 22:00:00 - 25.09.2018 22:00:00 (BST)Bournemouth Airport, United Kingdom (3862): sunshine duration: 19.09.2018 22:00:00 - 25.09.2018 22:00:00 (BST)Bournemouth Airport, United Kingdom (3862): precipitation: 19.09.2018 22:00:00 - 25.09.2018 22:00:00 (BST)
Date & Time tt [°C] td [°C] tt -20cm [°C] tt -100cm [°C] ff [km/h] ff [kn] fx [km/h] fx [kn] dd ppp [hPa] vv [km] sd [min] rr [mm]
25.09.2018 22:00:00 5,8 4,7 - - 4 2 - - N 1035,7 10 0 0,0
25.09.2018 21:00:00 6,0 4,4 - - 5 3 - - ENE 1035,7 10 0 0,0
25.09.2018 20:00:00 7,9 5,0 - - 4 2 - - - 1035,8 10 0 0,0
25.09.2018 19:00:00 13,2 5,2 - - 8 4 - - SSE 1035,8 10 54 0,0
25.09.2018 18:00:00 14,8 5,6 - - 9 5 - - S 1035,8 10 60 0,0
25.09.2018 17:00:00 15,2 6,1 - - 13 7 - - SSE 1036,3 10 60 0,0
25.09.2018 16:00:00 15,5 7,4 - - 13 7 - - S 1036,5 10 60 0,0
25.09.2018 15:00:00 15,6 6,9 - - 16 9 - - SSE 1037,1 10 60 0,0
25.09.2018 14:00:00 16,0 7,1 - - 18 10 - - S 1037,7 10 54 0,0
25.09.2018 13:00:00 16,7 8,4 - - 18 10 - - S 1038,0 10 42 0,0
25.09.2018 12:00:00 16,4 8,9 - - 16 9 - - S 1038,2 10 30 0,0
25.09.2018 11:00:00 14,9 8,1 - - 11 6 - - ESE 1038,5 19 54 0,0
25.09.2018 10:00:00 11,9 9,2 13,9 15,7 0 0 - - N 1038,4 10 60 0,0
25.09.2018 09:00:00 5,7 5,4 - - 4 2 - - N 1038,2 10 36 0,0
25.09.2018 08:00:00 1,5 1,1 - - 4 2 - - NNW 1038,2 10 0 0,0
25.09.2018 07:00:00 0,5 -0,1 - - 4 2 - - NNW 1038,2 15 0 0,0
25.09.2018 06:00:00 0,5 0,0 - - 5 3 - - NNW 1038,1 10 0 0,0
25.09.2018 05:00:00 1,2 0,8 - - 2 1 - - NNW 1038,2 13 0 0,0
25.09.2018 04:00:00 1,6 1,3 - - 4 2 - - NNW 1038,5 10 0 0,0
25.09.2018 03:00:00 2,0 1,5 - - 2 1 - - NNW 1038,6 15 0 0,0
25.09.2018 02:00:00 2,6 1,9 - - 2 1 - - NW 1038,8 16 0 0,0
25.09.2018 01:00:00 3,6 3,2 - - 4 2 - - NW 1039,2 14 - 0,0
25.09.2018 00:00:00 3,0 2,1 - - 5 3 - - NW 1039,0 10 0 0,0
24.09.2018 23:00:00 3,3 2,1 - - 4 2 - - NW 1039,0 10 0 0,0
24.09.2018 22:00:00 5,3 3,5 - - 4 2 - - NNW 1039,0 10 0 0,0
24.09.2018 21:00:00 6,8 4,4 - - 2 1 - - NNE 1038,7 10 0 0,0
24.09.2018 20:00:00 9,1 4,7 - - 4 2 - - N 1038,4 10 0 0,0
24.09.2018 19:00:00 11,8 3,6 - - 8 4 - - NNE 1038,1 10 36 0,0
24.09.2018 18:00:00 13,8 3,4 - - 13 7 - - N 1037,8 10 60 0,0
24.09.2018 17:00:00 14,1 4,2 - - 15 8 - - N 1037,7 10 30 0,0
24.09.2018 16:00:00 15,9 4,8 - - 13 7 - - NNW 1037,8 10 54 0,0
24.09.2018 15:00:00 15,4 5,1 - - 13 7 - - NNW 1038,3 10 54 0,0
24.09.2018 14:00:00 14,5 5,1 - - 18 10 - - NNW 1039,1 10 48 0,0
24.09.2018 13:00:00 15,3 6,8 - - 13 7 - - N 1038,9 10 48 0,0
24.09.2018 12:00:00 14,1 6,6 - - 15 8 - - N 1038,9 10 60 0,0
24.09.2018 11:00:00 13,2 6,5 - - 15 8 - - N 1039,0 10 60 0,0
24.09.2018 10:00:00 10,7 7,1 14,5 15,9 11 6 - - - 1038,9 10 60 0,0
24.09.2018 09:00:00 7,3 7,2 - - 4 2 - - NNW 1038,1 10 48 0,0
24.09.2018 08:00:00 3,0 2,8 - - 2 1 - - N 1037,5 10 0 0,0
24.09.2018 07:00:00 1,8 1,4 - - 4 2 - - N 1036,9 14 0 0,0
24.09.2018 06:00:00 2,3 1,9 - - 2 1 - - W 1036,5 10 0 0,2
24.09.2018 05:00:00 2,9 2,6 - - 5 3 - - NW 1036,0 15 0 0,0
24.09.2018 04:00:00 2,1 1,5 - - 5 3 - - N 1035,6 18 0 0,0
24.09.2018 03:00:00 3,5 2,9 - - 4 2 - - N 1035,2 22 0 0,0
24.09.2018 02:00:00 4,0 3,1 - - 8 4 - - W 1034,6 24 0 0,0
24.09.2018 01:00:00 5,1 3,6 - - 5 3 - - SSW 1033,9 23 - 0,0
24.09.2018 00:00:00 5,4 3,8 - - 11 6 - - NNW 1032,7 20 0 0,0
23.09.2018 23:00:00 5,5 3,2 - - 8 4 - - NW 1032,0 10 0 0,0
23.09.2018 22:00:00 6,5 4,5 - - 9 5 - - NNW 1030,6 10 0 0,0
23.09.2018 21:00:00 7,0 4,3 - - 9 5 - - NNW 1029,7 10 0 0,0
23.09.2018 20:00:00 8,8 5,5 - - 13 7 - - N 1028,4 10 0 0,0
23.09.2018 19:00:00 9,7 5,4 - - 11 6 - - N 1026,9 10 18 0,0
23.09.2018 18:00:00 12,7 6,8 - - 22 12 - - N 1025,2 10 42 0,0
23.09.2018 17:00:00 12,2 6,6 - - 28 15 46 25 N 1024,3 10 42 0,0
23.09.2018 16:00:00 13,1 5,4 - - 26 14 46 25 N 1023,3 10 48 0,0
23.09.2018 15:00:00 13,7 7,2 - - 22 12 - - N 1022,3 10 60 0,0
23.09.2018 14:00:00 12,6 8,0 - - 26 14 - - N 1020,8 10 48 0,0
23.09.2018 13:00:00 9,8 7,5 - - 24 13 - - N 1019,9 10 0 0,2
23.09.2018 12:00:00 9,8 7,3 - - 29 16 50 27 N 1019,0 10 0 0,0
23.09.2018 11:00:00 10,5 9,4 - - 24 13 - - N 1016,6 10 0 0,2
23.09.2018 10:00:00 9,6 9,0 15,7 16,0 22 12 - - NNE 1015,1 10 0 2,4
23.09.2018 09:00:00 9,9 9,4 - - 28 15 - - N 1014,9 4,0 0 5,2
23.09.2018 08:00:00 10,1 9,9 - - 18 10 - - NE 1012,0 2,5 0 1,4
23.09.2018 07:00:00 10,5 10,3 - - 15 8 - - NNE 1012,7 2,0 0 0,4
23.09.2018 06:00:00 10,8 10,7 - - 13 7 - - NNE 1012,8 1,9 0 0,4
23.09.2018 05:00:00 10,9 10,7 - - 11 6 - - NNE 1012,8 2,2 0 0,2
23.09.2018 04:00:00 11,1 10,9 - - 13 7 - - NNE 1012,7 2,2 0 0,2
23.09.2018 03:00:00 11,1 10,9 - - 11 6 - - NNE 1012,9 1,5 0 0,6
23.09.2018 02:00:00 11,3 11,1 - - 13 7 - - NNE 1013,1 2,0 0 0,4
23.09.2018 01:00:00 11,4 11,1 - - 9 5 - - NNE 1012,8 4,6 - 0,2
23.09.2018 00:00:00 11,5 11,1 - - 13 7 - - NE 1012,6 3,0 0 0,0
22.09.2018 23:00:00 11,5 11,0 - - 15 8 - - ENE 1011,9 6 0 0,0
22.09.2018 22:00:00 11,5 11,0 - - 18 10 - - NE 1011,7 6 0 0,0
22.09.2018 21:00:00 12,0 11,5 - - 24 13 - - ENE 1011,2 8 0 0,2
22.09.2018 20:00:00 12,0 11,5 - - 24 13 - - ENE 1011,3 8 0 0,2
22.09.2018 19:00:00 12,2 11,7 - - 16 9 - - E 1011,2 4,0 0 1,6
22.09.2018 18:00:00 12,1 11,6 - - 21 11 - - E 1012,0 7 0 1,2
22.09.2018 17:00:00 12,4 12,0 - - 21 11 - - ESE 1013,1 3,2 0 3,2
22.09.2018 16:00:00 11,2 10,8 - - 21 11 - - E 1014,3 3,0 0 2,4
22.09.2018 15:00:00 10,9 10,4 - - 18 10 - - E 1016,0 3,5 0 2,6
22.09.2018 14:00:00 11,1 10,3 - - 15 8 - - E 1017,2 4,8 0 2,2
22.09.2018 13:00:00 11,3 9,9 - - 8 4 - - ENE 1018,9 7 0 0,8
22.09.2018 12:00:00 11,0 8,6 - - 5 3 - - WNW 1019,8 5 0 1,2
22.09.2018 11:00:00 12,0 8,9 - - 11 6 - - W 1020,2 10 0 0,2
22.09.2018 10:00:00 12,4 8,5 16,2 16,2 11 6 - - W 1020,2 10 0 0,0
22.09.2018 09:00:00 11,8 8,4 - - 13 7 - - WSW 1019,8 10 0 0,0
22.09.2018 08:00:00 11,8 9,6 - - 5 3 - - W 1019,9 10 0 0,0
22.09.2018 07:00:00 11,2 8,9 - - 8 4 - - W 1020,0 10 0 0,0
22.09.2018 06:00:00 12,0 8,9 - - 11 6 - - WSW 1019,9 14 0 0,0
22.09.2018 05:00:00 11,1 8,8 - - 9 5 - - W 1019,6 14 0 0,0
22.09.2018 04:00:00 11,8 8,9 - - 9 5 - - WSW 1020,2 13 0 0,0
22.09.2018 03:00:00 11,3 8,7 - - 8 4 - - WSW 1020,0 15 0 0,0
22.09.2018 02:00:00 11,6 9,0 - - 11 6 - - W 1019,9 16 0 0,0
22.09.2018 01:00:00 11,2 8,4 - - 9 5 - - W 1019,9 21 - 0,0
22.09.2018 00:00:00 11,5 8,1 - - 9 5 - - WSW 1020,0 18 0 0,0
21.09.2018 23:00:00 11,3 8,0 - - 9 5 - - W 1019,5 10 0 0,0
21.09.2018 22:00:00 10,9 7,1 - - 16 9 - - W 1019,1 10 0 0,0
21.09.2018 21:00:00 10,6 7,0 - - 15 8 - - W 1018,6 10 0 0,0
21.09.2018 20:00:00 11,7 6,8 - - 11 6 - - W 1017,6 10 0 0,0
21.09.2018 19:00:00 14,0 7,1 - - 24 13 - - W 1016,4 10 54 0,0
21.09.2018 18:00:00 15,4 7,6 - - 26 14 46 25 W 1015,3 10 54 0,0
21.09.2018 17:00:00 16,7 8,4 - - 29 16 52 28 W 1014,9 10 30 0,0
21.09.2018 16:00:00 17,4 6,6 - - 35 19 65 35 W 1014,0 10 54 0,0
21.09.2018 15:00:00 17,6 5,5 - - 46 25 67 36 W 1013,0 10 48 0,0
21.09.2018 14:00:00 17,0 6,3 - - 39 21 59 32 W 1012,7 10 30 0,0
21.09.2018 13:00:00 15,0 4,9 - - 41 22 59 32 W 1012,2 10 54 0,0
21.09.2018 12:00:00 15,8 6,7 - - 34 18 54 29 W 1011,6 10 60 0,0
21.09.2018 11:00:00 14,7 7,6 - - 35 19 59 32 W 1011,1 10 60 0,0
21.09.2018 10:00:00 13,4 7,0 17,2 16,2 28 15 48 26 W 1010,6 10 60 0,0
21.09.2018 09:00:00 11,5 7,2 - - 26 14 - - W 1009,6 10 54 0,0
21.09.2018 08:00:00 9,9 7,1 - - 16 9 - - WSW 1008,5 10 6 0,0
21.09.2018 07:00:00 9,1 6,8 - - 16 9 - - W 1007,2 10 0 0,0
21.09.2018 06:00:00 10,7 7,3 - - 26 14 50 27 WNW 1005,8 24 0 0,0
21.09.2018 05:00:00 11,8 8,1 - - 31 17 52 28 W 1004,2 26 0 0,2
21.09.2018 04:00:00 12,5 9,2 - - 24 13 - - W 1002,7 24 0 0,0
21.09.2018 03:00:00 13,2 10,0 - - 26 14 48 26 W 1001,7 23 0 0,0
21.09.2018 02:00:00 15,1 12,7 - - 29 16 57 31 W 1000,4 20 0 0,0
21.09.2018 01:00:00 15,9 14,8 - - 48 26 85 46 WSW 999,7 10 - 5,0
21.09.2018 00:00:00 18,0 16,5 - - 42 23 78 42 SSW 999,2 7 0 0,2
20.09.2018 23:00:00 17,9 16,6 - - 41 22 72 39 SSW 1000,7 8 0 1,2
20.09.2018 22:00:00 18,2 16,4 - - 37 20 67 36 SSW 1002,7 10 0 0,0
20.09.2018 21:00:00 18,9 16,3 - - 35 19 63 34 SW 1004,0 10 0 0,0
20.09.2018 20:00:00 19,1 16,2 - - 35 19 54 29 SSW 1005,0 10 0 0,0
20.09.2018 19:00:00 18,9 16,0 - - 34 18 65 35 SSW 1005,9 10 0 0,0
20.09.2018 18:00:00 19,1 15,8 - - 34 18 55 30 SW 1007,2 10 0 0,0
20.09.2018 17:00:00 19,0 15,8 - - 31 17 63 34 SSW 1008,2 10 0 0,0
20.09.2018 16:00:00 19,4 15,7 - - 35 19 72 39 SSW 1009,3 10 0 0,0
20.09.2018 15:00:00 19,9 15,8 - - 35 19 59 32 SSW 1010,0 10 12 0,0
20.09.2018 14:00:00 18,9 15,7 - - 34 18 50 27 SSW 1010,8 10 0 0,0
20.09.2018 13:00:00 18,4 15,7 - - 29 16 48 26 SSW 1011,2 10 0 0,0
20.09.2018 12:00:00 18,4 15,7 - - 24 13 48 26 SW 1011,8 10 0 0,0
20.09.2018 11:00:00 18,3 15,8 - - 28 15 46 25 SW 1012,2 10 0 0,0
20.09.2018 10:00:00 18,5 16,3 17,2 16,2 28 15 48 26 SW 1012,4 10 0 0,0
20.09.2018 09:00:00 17,9 15,8 - - 29 16 52 28 SW 1012,4 10 0 0,0
20.09.2018 08:00:00 17,7 15,7 - - 26 14 50 27 SW 1012,3 10 0 0,0
20.09.2018 07:00:00 17,4 15,5 - - 29 16 46 25 SW 1012,7 10 0 0,0
20.09.2018 06:00:00 17,3 15,4 - - 28 15 46 25 SW 1012,6 13 0 0,0
20.09.2018 05:00:00 17,2 15,9 - - 24 13 48 26 SW 1012,8 12 0 0,6
20.09.2018 04:00:00 17,5 15,3 - - 24 13 48 26 SW 1013,3 13 0 0,0
20.09.2018 03:00:00 17,6 15,6 - - 26 14 46 25 SW 1013,5 12 0 0,0
20.09.2018 02:00:00 17,6 15,7 - - 24 13 - - SW 1013,8 12 0 0,0
20.09.2018 01:00:00 17,4 15,9 - - 22 12 - - SW 1014,0 10 - 0,0
20.09.2018 00:00:00 16,9 15,7 - - 18 10 - - SW 1014,6 10 0 0,0
19.09.2018 23:00:00 16,4 15,3 - - 16 9 - - SW 1014,9 10 0 0,2
19.09.2018 22:00:00 17,0 15,8 - - 22 12 - - WSW 1015,2 4,2 0 0,0

tt = temperature
td = dewpoint
tt -20cm = temperature -20cm
tt -100cm = temperature -100cm
ff = wind speed
fx = gusts
dd = wind direction
ppp = reduced air pressure
vv = visibility
sd = sunshine duration
rr = precipitation

Next stations